DW3800 Weather Reports


Display with metric or nautical units.
time (UTC)temp
F
wind
direction
speed
MPH
gust
MPH
rain 1hr
in
rain 24hr
in
rain mn
in
humidity
%
barometer
mb
20260905074734 66 66 0.0 7.0 0.00 0.00 0.00 99 1018.8
20260905074230 66 37 1.0 3.0 0.00 0.00 0.00 99 1018.6
20260905073725 66 310 1.0 5.0 0.00 0.00 0.00 99 1018.8
20260905073221 66 308 0.0 1.0 0.00 0.00 0.00 99 1018.6
20260905072720 66 322 0.0 9.0 0.00 0.00 0.00 99 1019.0
20260905072216 66 330 0.0 3.0 0.00 0.00 0.00 99 1018.9
20260905071712 66 359 0.0 1.0 0.00 0.00 0.00 99 1018.8
20260905071208 66 13 3.0 6.0 0.00 0.00 0.00 99 1018.8
20260905070703 66 6 2.0 5.0 0.00 0.00 0.00 99 1018.4
20260905070159 66 36 1.0 6.0 0.00 0.00 0.00 99 1018.6
20260905065657 66 121 1.0 2.0 0.00 0.00 0.00 98 1018.9
20260905065151 66 2 2.0 5.0 0.00 0.00 0.00 98 1019.0
20260905064647 66 146 0.0 5.0 0.00 0.00 0.00 98 1019.0
20260905064143 66 223 0.0 7.0 0.00 0.00 0.00 98 1018.8
20260905063640 66 34 3.0 5.0 0.00 0.00 0.00 98 1018.9
20260905063138 66 302 3.0 5.0 0.00 0.00 0.00 98 1018.8
20260905062633 66 8 2.0 2.0 0.00 0.00 0.00 97 1018.8
20260905062132 66 315 1.0 5.0 0.00 0.00 0.00 97 1018.8
20260905061627 66 347 1.0 2.0 0.00 0.00 0.00 97 1018.6
20260905061126 67 68 0.0 0.0 0.00 0.00 0.00 97 1018.6
20260905060622 67 340 0.0 3.0 0.00 0.00 0.00 97 1018.4
20260905060119 67 339 0.0 1.0 0.00 0.00 0.00 97 1018.5
20260905055617 67 92 1.0 5.0 0.00 0.00 0.00 96 1018.5
20260905055112 67 354 0.0 7.0 0.00 0.00 0.00 96 1018.4
20260905054608 67 354 0.0 2.0 0.00 0.00 0.00 96 1018.3
20260905054103 67 293 0.0 2.0 0.00 0.00 0.00 96 1018.1
20260905053603 67 314 2.0 3.0 0.00 0.00 0.00 96 1018.3
20260905053058 68 12 0.0 6.0 0.00 0.00 0.00 95 1018.2
20260905052557 68 336 3.0 3.0 0.00 0.00 0.00 95 1018.2
20260905052052 68 218 0.0 5.0 0.00 0.00 0.00 95 1018.0
20260905051548 68 349 0.0 1.0 0.00 0.00 0.00 95 1017.9
20260905051044 68 278 1.0 6.0 0.00 0.00 0.00 95 1017.8
20260905050540 68 303 2.0 8.0 0.00 0.00 0.00 94 1018.2
20260905050037 68 331 0.0 1.0 0.00 0.00 0.00 94 1018.2
20260905045531 68 357 0.0 5.0 0.00 0.00 0.00 94 1018.0
20260905045027 68 331 0.0 2.0 0.00 0.00 0.00 94 1018.2
20260905044526 69 354 2.0 5.0 0.00 0.00 0.00 93 1018.1
20260905044021 69 355 1.0 6.0 0.00 0.00 0.00 93 1017.9
20260905043520 69 26 1.0 7.0 0.00 0.00 0.00 93 1018.1
20260905043016 69 359 0.0 3.0 0.00 0.00 0.00 93 1018.1
20260905042514 69 357 1.0 6.0 0.00 0.00 0.00 92 1018.2
20260905042010 69 357 3.0 5.0 0.00 0.00 0.00 92 1018.0
20260905041505 69 342 1.0 3.0 0.00 0.00 0.00 92 1017.9
20260905041001 70 50 0.0 5.0 0.00 0.00 0.00 92 1018.2
20260905040500 70 2 1.0 2.0 0.00 0.00 0.00 91 1018.2
20260905035959 70 344 1.0 2.0 0.00 0.00 0.00 91 1018.2
20260905035454 70 22 1.0 2.0 0.00 0.00 0.00 91 1018.2
20260905034952 70 356 1.0 3.0 0.00 0.00 0.00 90 1018.1
20260905034447 71 328 5.0 7.0 0.00 0.00 0.00 90 1018.1
20260905033945 71 1 3.0 7.0 0.00 0.00 0.00 90 1018.2
20260905033445 71 327 2.0 5.0 0.00 0.00 0.00 89 1018.1
20260905032940 71 262 1.0 7.0 0.00 0.00 0.00 89 1018.0
20260905032436 71 89 0.0 6.0 0.00 0.00 0.00 89 1018.0
20260905031930 71 330 1.0 2.0 0.00 0.00 0.00 88 1018.0
20260905031426 71 59 1.0 5.0 0.00 0.00 0.00 88 1018.0
20260905030921 72 280 2.0 3.0 0.00 0.00 0.00 88 1018.1
20260905030417 72 36 1.0 3.0 0.00 0.00 0.00 87 1018.1
20260905025915 72 77 0.0 6.0 0.00 0.00 0.00 87 1017.8
20260905025411 73 328 1.0 8.0 0.00 0.00 0.00 86 1017.8
20260905024908 73 101 3.0 7.0 0.00 0.00 0.00 86 1018.0
20260905024402 73 7 3.0 5.0 0.00 0.00 0.00 86 1017.8
20260905023858 73 10 1.0 7.0 0.00 0.00 0.00 85 1017.8
20260905023353 74 291 3.0 11.0 0.00 0.00 0.00 85 1017.7
20260905022852 74 3 1.0 7.0 0.00 0.00 0.00 85 1017.6
20260905022347 74 2 3.0 6.0 0.00 0.00 0.00 84 1017.7
20260905021842 74 336 2.0 7.0 0.00 0.00 0.00 84 1017.5
20260905021337 75 293 7.0 9.0 0.00 0.00 0.00 84 1017.6
20260905020832 75 322 3.0 9.0 0.00 0.00 0.00 83 1017.3
20260905020326 75 333 4.0 9.0 0.00 0.00 0.00 83 1017.3
20260905015826 76 0 1.0 7.0 0.00 0.00 0.00 83 1017.3
20260905015320 76 42 2.0 7.0 0.00 0.00 0.00 82 1017.3
20260905014819 76 34 0.0 5.0 0.00 0.00 0.00 83 1017.0
20260905014315 76 64 0.0 3.0 0.00 0.00 0.00 83 1017.3
20260905013810 76 322 0.0 2.0 0.00 0.00 0.00 83 1017.4
20260905013306 77 51 0.0 1.0 0.00 0.00 0.00 83 1017.2
20260905012801 77 146 0.0 1.0 0.00 0.00 0.00 82 1017.1
20260905012256 77 232 0.0 3.0 0.00 0.00 0.00 81 1017.0
20260905011753 77 183 0.0 3.0 0.00 0.00 0.00 80 1016.8
20260905011249 77 312 1.0 3.0 0.00 0.00 0.00 80 1016.6
20260905010743 77 24 1.0 3.0 0.00 0.00 0.00 81 1016.7
20260905010239 78 20 1.0 3.0 0.00 0.00 0.00 80 1016.9
20260905005736 78 290 3.0 3.0 0.00 0.00 0.00 79 1016.7
20260905005231 78 275 1.0 2.0 0.00 0.00 0.00 80 1016.5
20260905004730 78 203 0.0 0.0 0.00 0.00 0.00 79 1016.6
20260905004226 79 320 1.0 2.0 0.00 0.00 0.00 78 1016.8
20260905003725 79 307 0.0 1.0 0.00 0.00 0.00 78 1016.7
20260905003221 80 286 0.0 1.0 0.00 0.00 0.00 77 1016.7
20260905002717 80 301 1.0 6.0 0.00 0.00 0.00 76 1016.6
20260905002217 81 285 1.0 3.0 0.00 0.00 0.00 75 1016.6
20260905001712 81 350 1.0 3.0 0.00 0.00 0.00 74 1016.4
20260905001211 81 353 1.0 3.0 0.00 0.00 0.00 74 1016.3
20260905000706 82 24 2.0 5.0 0.00 0.00 0.00 74 1016.5
20260905000204 82 335 1.0 3.0 0.00 0.00 0.00 74 1016.4
20260904235702 82 359 2.0 5.0 0.00 0.00 0.00 75 1016.4
20260904235157 82 275 3.0 3.0 0.00 0.00 0.00 75 1016.4
20260904234652 82 353 1.0 3.0 0.00 0.00 0.00 75 1016.5
20260904234148 83 318 3.0 5.0 0.00 0.00 0.00 74 1016.5
20260904233643 82 264 1.0 2.0 0.00 0.00 0.00 75 1016.3
20260904233139 82 328 2.0 3.0 0.00 0.00 0.00 75 1016.4
20260904232635 83 330 3.0 5.0 0.00 0.00 0.00 75 1016.4
20260904232131 83 317 1.0 6.0 0.00 0.00 0.00 75 1016.2
20260904231626 83 152 1.0 3.0 0.00 0.00 0.00 75 1016.3
20260904231121 83 187 2.0 2.0 0.00 0.00 0.00 75 1016.1
20260904230621 84 248 3.0 6.0 0.00 0.00 0.00 75 1016.2
20260904230116 84 214 0.0 5.0 0.00 0.00 0.00 75 1016.3
20260904225613 84 19 2.0 3.0 0.00 0.00 0.00 75 1016.0
20260904225108 84 261 2.0 3.0 0.00 0.00 0.00 75 1016.0
20260904224603 84 91 2.0 7.0 0.00 0.00 0.00 75 1016.0
20260904224058 84 134 1.0 5.0 0.00 0.00 0.00 76 1015.9
20260904223557 85 126 1.0 3.0 0.00 0.00 0.00 76 1015.9
20260904223053 84 335 3.0 6.0 0.00 0.00 0.00 76 1016.1
20260904222549 85 257 2.0 5.0 0.00 0.00 0.00 75 1016.0
20260904222044 85 152 1.0 5.0 0.00 0.00 0.00 75 1015.7
20260904221538 85 227 3.0 5.0 0.00 0.00 0.00 74 1015.8
20260904221033 85 124 0.0 2.0 0.00 0.00 0.00 75 1015.5
20260904220533 85 110 1.0 6.0 0.00 0.00 0.00 76 1015.6
20260904220029 86 234 0.0 1.0 0.00 0.00 0.00 76 1015.5
20260904215528 86 275 2.0 3.0 0.00 0.00 0.00 74 1015.4
20260904215024 86 187 1.0 3.0 0.00 0.00 0.00 74 1015.6
20260904214520 86 85 2.0 5.0 0.00 0.00 0.00 74 1015.7
20260904214015 86 311 1.0 7.0 0.00 0.00 0.00 74 1015.4
20260904213512 86 215 1.0 3.0 0.00 0.00 0.00 74 1015.2
20260904213009 85 201 0.0 2.0 0.00 0.00 0.00 75 1015.5
20260904212503 85 109 0.0 5.0 0.00 0.00 0.00 74 1015.5
20260904211958 86 338 3.0 3.0 0.00 0.00 0.00 72 1015.5
20260904211452 86 318 3.0 5.0 0.00 0.00 0.00 74 1015.5
20260904210948 86 221 1.0 2.0 0.00 0.00 0.00 73 1015.5
20260904210447 86 135 1.0 6.0 0.00 0.00 0.00 75 1015.6
20260904205943 85 248 1.0 6.0 0.00 0.00 0.00 75 1015.6
20260904205438 85 217 2.0 5.0 0.00 0.00 0.00 75 1015.6
20260904204936 85 194 2.0 5.0 0.00 0.00 0.00 75 1015.6
20260904204430 85 287 2.0 3.0 0.00 0.00 0.00 76 1015.7
20260904203927 85 205 0.0 3.0 0.00 0.00 0.00 75 1015.7
20260904203423 84 217 1.0 3.0 0.00 0.00 0.00 76 1015.6
20260904202919 85 26 1.0 3.0 0.00 0.00 0.00 76 1015.5
20260904202415 85 214 1.0 2.0 0.00 0.00 0.00 76 1015.6
20260904201911 85 258 2.0 3.0 0.00 0.00 0.00 75 1015.5
20260904201405 85 226 2.0 5.0 0.00 0.00 0.00 76 1015.7
20260904200901 85 148 1.0 2.0 0.00 0.00 0.00 76 1015.4
20260904200359 84 200 1.0 2.0 0.00 0.00 0.00 77 1015.6
20260904195854 84 200 3.0 6.0 0.00 0.00 0.00 77 1015.7
20260904195352 84 335 3.0 5.0 0.00 0.00 0.00 77 1015.7
20260904194847 85 198 3.0 5.0 0.00 0.00 0.00 76 1015.6
20260904194346 85 231 1.0 2.0 0.00 0.00 0.00 77 1015.4
20260904193842 83 24 2.0 5.0 0.00 0.00 0.00 78 1015.7
20260904193337 82 172 0.0 5.0 0.00 0.00 0.00 81 1015.6
20260904192832 83 45 1.0 2.0 0.00 0.00 0.00 79 1015.7
20260904192327 83 317 3.0 8.0 0.00 0.00 0.00 80 1015.8
20260904191824 83 270 4.0 5.0 0.00 0.00 0.00 79 1015.9
20260904191321 82 208 1.0 6.0 0.00 0.00 0.00 81 1016.0
20260904190817 83 268 4.0 5.0 0.00 0.00 0.00 79 1015.8
20260904190312 83 170 1.0 8.0 0.00 0.00 0.00 81 1015.9
20260904185809 82 201 1.0 7.0 0.00 0.00 0.00 81 1015.9
20260904185306 82 110 0.0 3.0 0.00 0.00 0.00 82 1015.7
20260904184803 82 348 1.0 5.0 0.00 0.00 0.00 82 1015.9
20260904184258 81 340 1.0 2.0 0.00 0.00 0.00 83 1015.6
20260904183753 81 105 1.0 2.0 0.00 0.00 0.00 83 1015.8
20260904183248 81 200 1.0 8.0 0.00 0.00 0.00 84 1015.7
20260904182743 81 212 0.0 3.0 0.00 0.00 0.00 84 1015.7
20260904182238 81 179 2.0 6.0 0.00 0.00 0.00 84 1016.0
20260904181734 81 219 3.0 3.0 0.00 0.00 0.00 84 1015.9
20260904181234 81 276 4.0 7.0 0.00 0.00 0.00 83 1015.8
20260904180729 81 313 3.0 5.0 0.00 0.00 0.00 83 1015.7
20260904180224 81 31 3.0 3.0 0.00 0.00 0.00 83 1015.7
20260904175723 82 343 1.0 8.0 0.00 0.00 0.00 83 1015.7
20260904175222 83 351 3.0 5.0 0.00 0.00 0.00 81 1015.6
20260904174717 82 51 2.0 5.0 0.00 0.00 0.00 83 1015.5
20260904174213 82 312 2.0 5.0 0.00 0.00 0.00 83 1015.5
20260904173709 82 113 0.0 7.0 0.00 0.00 0.00 84 1015.2
20260904173203 82 192 4.0 7.0 0.00 0.00 0.00 83 1015.4
20260904172700 82 314 4.0 6.0 0.00 0.00 0.00 82 1015.2
20260904172159 82 190 3.0 6.0 0.00 0.00 0.00 82 1015.1
20260904171654 81 146 0.0 6.0 0.00 0.00 0.00 84 1015.2
20260904171149 82 342 7.0 9.0 0.00 0.00 0.00 83 1015.4
20260904170645 83 110 1.0 8.0 0.00 0.00 0.00 83 1015.1
20260904170141 83 250 1.0 6.0 0.00 0.00 0.00 82 1015.1
20260904165639 82 347 2.0 3.0 0.00 0.00 0.00 83 1015.4
20260904165134 82 327 3.0 3.0 0.00 0.00 0.00 83 1015.4
20260904164634 82 80 2.0 6.0 0.00 0.00 0.00 84 1015.2
20260904164129 84 73 1.0 2.0 0.00 0.00 0.00 82 1015.1
20260904163624 82 312 1.0 6.0 0.00 0.00 0.00 84 1015.0
20260904163119 82 207 3.0 5.0 0.00 0.00 0.00 84 1015.0
20260904162614 82 120 2.0 3.0 0.00 0.00 0.00 84 1015.0
20260904162109 82 337 1.0 5.0 0.00 0.00 0.00 84 1015.1
20260904161604 84 203 3.0 5.0 0.00 0.00 0.00 82 1015.0
20260904161059 84 236 3.0 6.0 0.00 0.00 0.00 82 1014.7
20260904160555 84 125 1.0 3.0 0.00 0.00 0.00 82 1014.7
20260904160050 84 121 0.0 2.0 0.00 0.00 0.00 81 1014.6
20260904155549 84 156 1.0 3.0 0.00 0.00 0.00 81 1014.7
20260904155044 84 105 0.0 5.0 0.00 0.00 0.00 80 1014.8
20260904154538 84 306 1.0 2.0 0.00 0.00 0.00 81 1014.5
20260904154033 83 134 1.0 6.0 0.00 0.00 0.00 82 1014.4
20260904153532 84 181 2.0 3.0 0.00 0.00 0.00 82 1014.5
20260904153029 83 170 4.0 5.0 0.00 0.00 0.00 82 1014.5
20260904152524 84 84 1.0 3.0 0.00 0.00 0.00 81 1014.6
20260904152020 84 101 0.0 1.0 0.00 0.00 0.00 81 1014.3
20260904151514 84 118 0.0 0.0 0.00 0.00 0.00 81 1014.4
20260904151014 83 89 0.0 2.0 0.00 0.00 0.00 83 1014.4
20260904150514 83 66 1.0 1.0 0.00 0.00 0.00 82 1013.9
20260904150009 83 95 0.0 2.0 0.00 0.00 0.00 83 1014.1
20260904145503 82 83 1.0 1.0 0.00 0.00 0.00 84 1013.8
20260904144958 82 100 1.0 2.0 0.00 0.00 0.00 85 1014.1
20260904144454 81 61 0.0 1.0 0.00 0.00 0.00 85 1014.1
20260904143950 80 83 0.0 1.0 0.00 0.00 0.00 87 1014.2
20260904143446 80 102 0.0 2.0 0.00 0.00 0.00 87 1014.1
20260904142943 80 105 0.0 1.0 0.00 0.00 0.00 88 1014.1
20260904142439 80 344 2.0 2.0 0.00 0.00 0.00 86 1014.1
20260904141938 80 91 0.0 2.0 0.00 0.00 0.00 87 1014.1
20260904141433 80 93 0.0 3.0 0.00 0.00 0.00 87 1014.0
20260904140931 79 86 0.0 0.0 0.00 0.00 0.00 88 1014.1
20260904140430 78 74 0.0 0.0 0.00 0.00 0.00 90 1014.2
20260904135929 78 14 0.0 1.0 0.00 0.00 0.00 90 1014.3
20260904135429 78 352 1.0 1.0 0.00 0.00 0.00 89 1014.2
20260904134925 79 20 2.0 2.0 0.00 0.00 0.00 88 1014.5
20260904134425 78 83 0.0 0.0 0.00 0.00 0.00 93 1014.1
20260904133920 76 92 0.0 1.0 0.00 0.00 0.00 95 1014.2
20260904133414 75 104 1.0 2.0 0.00 0.00 0.00 97 1014.3
20260904132910 75 95 0.0 1.0 0.00 0.00 0.00 99 1014.5
20260904132405 75 95 0.0 0.0 0.00 0.00 0.00 99 1014.2
20260904131905 74 72 0.0 0.0 0.00 0.00 0.00 99 1014.1
20260904131400 74 164 0.0 0.0 0.00 0.00 0.00 99 1014.1
20260904130855 73 89 0.0 0.0 0.00 0.00 0.00 99 1014.1
20260904130355 73 135 0.0 0.0 0.00 0.00 0.00 99 1013.9
20260904125850 72 103 0.0 0.0 0.00 0.00 0.00 99 1013.6
20260904125346 72 99 0.0 1.0 0.00 0.00 0.00 99 1014.0
20260904124844 72 113 0.0 0.0 0.00 0.00 0.00 99 1013.7
20260904124341 72 91 0.0 1.0 0.00 0.00 0.00 99 1013.6
20260904123837 72 104 0.0 1.0 0.00 0.00 0.00 99 1013.5
20260904123332 72 112 0.0 0.0 0.00 0.00 0.00 99 1013.6
20260904122827 72 61 0.0 1.0 0.00 0.00 0.00 99 1013.7
20260904122327 72 107 0.0 0.0 0.00 0.00 0.00 99 1013.6
20260904121822 72 108 0.0 0.0 0.00 0.00 0.00 99 1013.5
20260904121318 71 37 0.0 0.0 0.00 0.00 0.00 99 1013.6
20260904120814 71 103 0.0 0.0 0.00 0.00 0.00 99 1013.5
20260904120310 71 110 0.0 0.0 0.00 0.00 0.00 99 1013.3
20260904115804 72 99 0.0 0.0 0.00 0.00 0.00 99 1013.4
20260904115300 72 320 0.0 0.0 0.00 0.00 0.00 99 1013.4
20260904114754 72 101 0.0 2.0 0.00 0.00 0.00 99 1013.3
20260904114254 72 109 0.0 0.0 0.00 0.00 0.00 99 1013.1
20260904113750 72 334 1.0 1.0 0.00 0.00 0.00 99 1013.2
20260904113248 72 116 0.0 0.0 0.00 0.00 0.00 99 1013.1
20260904112743 72 347 1.0 1.0 0.00 0.00 0.00 99 1013.3
20260904112239 72 106 0.0 0.0 0.00 0.00 0.00 99 1012.9
20260904111735 72 77 0.0 1.0 0.00 0.00 0.00 99 1013.0
20260904111230 72 107 0.0 1.0 0.00 0.00 0.00 99 1012.9
20260904110726 72 99 0.0 0.0 0.00 0.00 0.00 99 1013.1
20260904110225 72 103 0.0 0.0 0.00 0.00 0.00 99 1013.0
20260904105720 72 107 0.0 0.0 0.00 0.00 0.00 99 1013.0
20260904105215 72 99 0.0 0.0 0.00 0.00 0.00 99 1013.0
20260904104710 72 100 0.0 0.0 0.00 0.00 0.00 99 1012.8
20260904104206 72 119 0.0 0.0 0.00 0.00 0.00 99 1013.0
20260904103703 72 107 0.0 0.0 0.00 0.00 0.00 99 1013.1
20260904103157 73 33 1.0 1.0 0.00 0.00 0.00 99 1013.1
20260904102653 73 120 0.0 1.0 0.00 0.00 0.00 99 1013.1
20260904102148 73 310 1.0 3.0 0.00 0.00 0.00 99 1013.3
20260904101645 73 75 0.0 0.0 0.00 0.00 0.00 99 1013.2
20260904101140 73 103 0.0 0.0 0.00 0.00 0.00 99 1013.2
20260904100636 73 310 0.0 2.0 0.00 0.00 0.00 99 1013.3
20260904100131 73 354 1.0 2.0 0.00 0.00 0.00 99 1013.0
20260904095626 72 98 0.0 0.0 0.00 0.00 0.00 99 1012.9
20260904095126 73 100 0.0 0.0 0.00 0.00 0.00 99 1013.0
20260904094620 73 93 0.0 0.0 0.00 0.00 0.00 99 1012.9
20260904094115 73 100 0.0 0.0 0.00 0.00 0.00 99 1012.7
20260904093612 73 94 0.0 0.0 0.00 0.00 0.00 99 1013.0
20260904093107 73 99 0.0 0.0 0.00 0.00 0.00 99 1013.0
20260904092603 73 92 0.0 0.0 0.00 0.00 0.00 99 1013.0
20260904092059 73 103 0.0 0.0 0.00 0.00 0.00 99 1012.7
20260904091555 73 103 0.0 0.0 0.00 0.00 0.00 99 1012.7
20260904091054 73 95 0.0 0.0 0.00 0.00 0.00 99 1012.6
20260904090550 73 95 0.0 0.0 0.00 0.00 0.00 99 1012.6
20260904090045 73 97 0.0 0.0 0.00 0.00 0.00 99 1012.7
20260904085540 73 95 0.0 0.0 0.00 0.00 0.00 99 1012.6
20260904085039 73 95 0.0 0.0 0.00 0.00 0.00 99 1012.6
20260904084536 73 67 0.0 0.0 0.00 0.00 0.00 99 1012.6
20260904084032 73 101 0.0 0.0 0.00 0.00 0.00 98 1012.5
20260904083527 73 91 0.0 0.0 0.00 0.00 0.00 98 1012.3
20260904083023 73 93 0.0 0.0 0.00 0.00 0.00 98 1012.5
20260904082518 73 91 0.0 0.0 0.00 0.00 0.00 98 1012.6
20260904082013 74 77 0.0 0.0 0.00 0.00 0.00 98 1012.5
20260904081509 74 83 0.0 1.0 0.00 0.00 0.00 98 1012.5
20260904081004 74 95 0.0 0.0 0.00 0.00 0.00 98 1012.5
20260904080459 74 95 0.0 0.0 0.00 0.00 0.00 98 1012.5
20260904075955 74 95 0.0 0.0 0.00 0.00 0.00 97 1012.5
20260904075451 74 100 0.0 0.0 0.00 0.00 0.00 97 1012.4
20260904074950 74 100 0.0 0.0 0.00 0.00 0.00 97 1012.6